Location: Black Skies Observatory
(44.7549°N, 79.7179°W)
Time: 13:55:12
(UTC-05:00)

Envisat - Pass Details

Date: 07 November 2020
Orbit: 764 x 766 km, 98.1° (Epoch: 01 December)

Event Time Altitude Azimuth Distance (km) Brightness Sun altitude
Rises 05:11:38 0° 27° (NNE) 3,240 6.6 -20.5°
Reaches altitude 10° 05:14:33 10° 44° (NE) 2,309 6.0 -20.0°
Maximum altitude 05:18:17 20° 92° (E) 1,696 5.7 -19.3°
Drops below altitude 10° 05:22:00 10° 139° (SE) 2,295 6.1 -18.6°
Sets 05:24:52 0° 156° (SSE) 3,216 6.6 -18.1°
